Flag for U.S.A. Weather past 2 weeks in Charleston, West Virginia, U.S.A.

Now
40 °F

Passing clouds.


Feels Like: 38 °F
Forecast: 34 / 52 °F
Wind: 3 mph from Northeast

Location: Yeager Airport

Current Time: Dec 21, 2014 at 7:07:56 PM

Latest Report: Dec 21, 2014 at 5:54 PM


Visibility: 10 mi

Pressure: 30.18 "Hg

Humidity: 58%

Dew point: 26 °F

Location of CharlestonLocation

Historic Weather in Charleston — Graph

°F

Charleston temperature yesterday

Maximum temperature yesterday: 36 °F (at 2:54 PM)
Minimum temperature yesterday: 28 °F (at 4:54 AM)
Average temperature yesterday: 32 °F

Past Weeks' High & Low Weather Summary

 TemperatureHumidityPressure
High56 °F (Dec 16, 10:54 AM)96% (Dec 13, 11:54 AM)30.57 "Hg (Dec 13, 11:54 AM)
Low27 °F (Dec 21, 7:54 AM)34% (Dec 8, 12:54 PM)29.81 "Hg (Dec 16, 7:54 AM)
Average37 °F73%30.20 "Hg
* Reported Dec 6 5:54 PM — Dec 21 5:54 PM, Charleston, Weather by CustomWeather, © 2014

Note: Actual official high and low records may vary slightly from our data, if they occured in-between our weather recording intervals... More about our weather records

Advertising

Charleston weather history for previous 24 hours

 ConditionsComfort  
Time TempWeatherWind HumidityBarometerVisibility
5:54 PM
Dec 21
40 °FPassing clouds.3 mph58%30.18 "Hg10 mi
4:54 PM43 °FScattered clouds.5 mph51%30.19 "Hg10 mi
3:54 PM45 °FScattered clouds.3 mph48%30.21 "Hg10 mi
2:54 PM45 °FPassing clouds.5 mph48%30.20 "Hg10 mi
1:54 PM44 °FPassing clouds.3 mph51%30.22 "Hg10 mi
12:54 PM42 °FPassing clouds.No wind55%30.25 "Hg10 mi
11:54 AM39 °FPassing clouds.No wind60%30.29 "Hg10 mi
10:54 AM37 °FPassing clouds.No wind67%30.32 "Hg10 mi
9:54 AM33 °FPassing clouds.3 mph78%30.33 "Hg10 mi
8:54 AM29 °FPassing clouds.No wind93%30.33 "Hg10 mi
7:54 AM27 °FIce fog.No wind89%30.33 "Hg5 mi
6:54 AM28 °FClear.No wind85%30.32 "Hg10 mi
5:54 AM28 °FClear.3 mph89%30.31 "Hg10 mi
4:54 AM31 °FPassing clouds.No wind79%30.29 "Hg10 mi
3:54 AM31 °FOvercast.No wind79%30.30 "Hg10 mi
2:54 AM32 °FMostly cloudy.No wind79%30.29 "Hg10 mi
1:54 AM33 °FMostly cloudy.No wind75%30.29 "Hg10 mi
12:54 AM33 °FMostly cloudy.No wind75%30.28 "Hg10 mi
11:54 PM
Dec 20
33 °FOvercast.No wind75%30.29 "Hg10 mi
10:54 PM33 °FOvercast.No wind72%30.29 "Hg10 mi
9:54 PM34 °FMostly cloudy.No wind70%30.29 "Hg10 mi
8:54 PM34 °FMostly cloudy.3 mph70%30.29 "Hg10 mi
7:54 PM34 °FMostly cloudy.No wind67%30.28 "Hg10 mi
Weather by CustomWeather, © 2014

See weather overviewHow to use our weather pages